FW3145 Weather Reports


Display with metric or nautical units.
time (UTC)temp
F
wind
direction
speed
MPH
gust
MPH
rain 1hr
in
rain 24hr
in
rain mn
in
humidity
%
barometer
mb
20260905181553 77 49 0.0 0.0 0.00 0.00 0.00 55 1016.4
20260905180055 79 74 0.0 0.0 0.00 0.00 0.00 52 1016.2
20260905174557 79 77 0.0 0.0 0.00 0.00 0.00 51 1015.9
20260905173052 81 257 0.0 0.0 0.00 0.00 0.00 51 1015.7
20260905171552 84 257 0.0 0.0 0.00 0.00 0.00 48 1015.6
20260905170055 85 266 0.0 0.0 0.00 0.00 0.00 43 1015.6
20260905164551 86 277 0.0 0.0 0.00 0.00 0.00 49 1015.6
20260905163050 87 287 0.0 0.0 0.00 0.00 0.00 47 1015.4
20260905161552 88 270 0.0 0.0 0.00 0.00 0.00 48 1015.4
20260905160049 88 284 0.0 0.0 0.00 0.00 0.00 47 1015.4
20260905154552 89 269 0.0 0.0 0.00 0.00 0.00 44 1015.4
20260905153047 90 257 0.0 0.0 0.00 0.00 0.00 41 1015.4
20260905151547 92 281 0.0 0.0 0.00 0.00 0.00 38 1015.5
20260905150046 92 259 0.0 0.0 0.00 0.00 0.00 34 1015.5
20260905144546 93 235 0.0 0.0 0.00 0.00 0.00 32 1015.4
20260905143045 94 284 0.0 0.0 0.00 0.00 0.00 32 1015.4
20260905141547 94 281 0.0 0.0 0.00 0.00 0.00 32 1015.4
20260905140046 94 251 0.0 0.0 0.00 0.00 0.00 32 1015.4
20260905134542 94 266 0.0 0.0 0.00 0.00 0.00 33 1015.5
20260905133040 94 238 0.0 0.0 0.00 0.00 0.00 34 1015.5
20260905131556 94 257 0.0 0.0 0.00 0.00 0.00 37 1015.6
20260905130040 94 176 0.0 0.0 0.00 0.00 0.00 37 1015.6
20260905124546 94 265 0.0 0.0 0.00 0.00 0.00 39 1015.7
20260905123044 94 164 0.0 0.0 0.00 0.00 0.00 40 1015.8
20260905121534 93 162 0.0 0.0 0.00 0.00 0.00 41 1016.1
20260905120130 93 171 0.0 0.0 0.00 0.00 0.00 41 1016.2
20260905114538 92 180 0.0 0.0 0.00 0.00 0.00 43 1016.3
20260905113024 91 175 0.0 0.0 0.00 0.00 0.00 45 1016.4
20260905111527 91 153 0.0 0.0 0.00 0.00 0.00 44 1016.5
20260905110020 90 182 0.0 0.0 0.00 0.00 0.00 46 1016.5
20260905104518 89 153 0.0 0.0 0.00 0.00 0.00 45 1016.6
20260905103027 89 179 0.0 0.0 0.00 0.00 0.00 45 1016.7
20260905101524 89 136 0.0 0.0 0.00 0.00 0.00 45 1016.8
20260905100013 88 289 0.0 0.0 0.00 0.00 0.00 45 1017.0
20260905094506 87 147 0.0 0.0 0.00 0.00 0.00 47 1017.2
20260905093002 86 150 0.0 0.0 0.00 0.00 0.00 45 1017.3
20260905091616 85 170 0.0 0.0 0.00 0.00 0.00 50 1017.4
20260905090054 83 119 0.0 0.0 0.00 0.00 0.00 49 1017.4
20260905084604 82 196 0.0 0.0 0.00 0.00 0.00 51 1017.3
20260905083046 82 160 0.0 0.0 0.00 0.00 0.00 53 1017.1
20260905081541 80 163 0.0 0.0 0.00 0.00 0.00 56 1017.0
20260905080037 79 163 0.0 0.0 0.00 0.00 0.00 56 1016.9
20260905074533 77 148 0.0 0.0 0.00 0.00 0.00 59 1016.9
20260905073033 76 138 0.0 0.0 0.00 0.00 0.00 60 1016.9
20260905071525 75 135 0.0 0.0 0.00 0.00 0.00 62 1016.8
20260905070020 74 147 0.0 0.0 0.00 0.00 0.00 63 1016.8
20260905064516 74 231 0.0 0.0 0.00 0.00 0.00 63 1016.8
20260905063011 72 258 0.0 0.0 0.00 0.00 0.00 67 1016.8
20260905061506 72 336 0.0 0.0 0.00 0.00 0.00 70 1016.7
20260905060003 70 336 0.0 0.0 0.00 0.00 0.00 78 1016.7
20260905054600 67 342 0.0 0.0 0.00 0.00 0.00 80 1016.7
20260905053108 65 341 0.0 0.0 0.00 0.00 0.00 81 1016.6
20260905051550 63 341 0.0 0.0 0.00 0.00 0.00 80 1016.4
20260905050047 63 341 0.0 0.0 0.00 0.00 0.00 80 1016.3
20260905044545 63 9 0.0 0.0 0.00 0.00 0.00 80 1016.2
20260905043046 63 9 0.0 0.0 0.00 0.00 0.00 80 1016.2
20260905041542 63 10 0.0 0.0 0.00 0.00 0.00 80 1016.3
20260905040040 64 9 0.0 0.0 0.00 0.00 0.00 80 1016.2
20260905034546 64 9 0.0 0.0 0.00 0.00 0.00 79 1016.2
20260905033039 64 9 0.0 0.0 0.00 0.00 0.00 79 1016.3
20260905031539 64 5 0.0 0.0 0.00 0.00 0.00 79 1016.3
20260905030038 64 5 0.0 0.0 0.00 0.00 0.00 78 1016.2
20260905024536 64 5 0.0 0.0 0.00 0.00 0.00 78 1016.3
20260905023034 64 5 0.0 0.0 0.00 0.00 0.00 77 1016.2
20260905021531 65 5 0.0 0.0 0.00 0.00 0.00 77 1016.1
20260905020028 65 5 0.0 0.0 0.00 0.00 0.00 76 1016.3
20260905014526 66 5 0.0 0.0 0.00 0.00 0.00 75 1016.2
20260905013024 66 5 0.0 0.0 0.00 0.00 0.00 74 1016.2
20260905011523 66 5 0.0 0.0 0.00 0.00 0.00 74 1016.2
20260905010022 66 355 0.0 0.0 0.00 0.00 0.00 74 1016.3
20260905004520 66 349 0.0 0.0 0.00 0.00 0.00 73 1016.3
20260905003018 67 349 0.0 0.0 0.00 0.00 0.00 72 1016.3
20260905001516 67 349 0.0 0.0 0.00 0.00 0.00 70 1016.3
20260905000013 68 349 0.0 0.0 0.00 0.00 0.00 69 1016.4
20260904234511 68 349 0.0 0.0 0.00 0.00 0.00 68 1016.4
20260904233010 68 355 0.0 0.0 0.00 0.00 0.00 68 1016.5
20260904231515 68 355 0.0 0.0 0.00 0.00 0.00 68 1016.5
20260904230008 68 355 0.0 0.0 0.00 0.00 0.00 68 1016.6
20260904224505 69 355 0.0 0.0 0.00 0.00 0.00 68 1016.6
20260904223004 69 355 0.0 0.0 0.00 0.00 0.00 68 1016.6
20260904221502 69 355 0.0 0.0 0.00 0.00 0.00 67 1016.5
20260904220104 70 355 0.0 0.0 0.00 0.00 0.00 66 1016.5
20260904214607 70 355 0.0 0.0 0.00 0.00 0.00 65 1016.5
20260904213058 71 355 0.0 0.0 0.00 0.00 0.00 63 1016.5
20260904211604 72 355 0.0 0.0 0.00 0.00 0.00 61 1016.5
20260904210056 72 9 0.0 0.0 0.00 0.00 0.00 58 1016.5
20260904204555 73 333 0.0 0.0 0.00 0.00 0.00 58 1016.6
20260904203054 74 19 0.0 0.0 0.00 0.00 0.00 56 1016.7
20260904201601 75 98 0.0 0.0 0.00 0.00 0.00 52 1016.6
20260904200057 76 98 0.0 0.0 0.00 0.00 0.00 49 1016.6
20260904194554 78 345 0.0 0.0 0.00 0.00 0.00 47 1016.7
20260904193050 79 10 0.0 0.0 0.00 0.00 0.00 42 1016.6
20260904191548 78 38 0.0 0.0 0.00 0.00 0.00 42 1016.4
20260904190047 78 12 0.0 0.0 0.00 0.00 0.00 45 1016.4
20260904184600 80 31 0.0 0.0 0.00 0.00 0.00 42 1016.3
20260904183046 81 23 0.0 0.0 0.00 0.00 0.00 39 1016.0